Williston, ND

7:23 PM CDT on May 22, 2017 (GMT -0500)
Sloulin International

Weather History for KISN - September, 2013

Change the Weather History Date:

Sunday, September 15, 2013

  Actual Average Record
Temperature  
Mean Temperature 56 °F 57 °F  
Max Temperature 69 °F 72 °F 100 °F (1948)
Min Temperature 42 °F 42 °F 24 °F (1934)
Degree Days  
Heating Degree Days 9 9  
Month to date heating degree days 17 93  
Since 1 July heating degree days 63 164  
Cooling Degree Days 0 1  
Month to date cooling degree days 68 22  
Year to date cooling degree days 395 451  
Growing Degree Days 6 (Base 50)    
Moisture  
Dew Point 43 °F    
Average Humidity 61    
Maximum Humidity 89    
Minimum Humidity 32    
Precipitation  
Precipitation 0.00 in 0.03 in 1.22 in (1991)
Month to date precipitation 1.32 0.55  
Year to date precipitation 17.21 11.67  
Snow  
Snow 0.00 in - - ()
Month to date snowfall 0.0  
Snow Depth 0.00 in    
Sea Level Pressure  
Sea Level Pressure 30.26 in    
Wind  
Wind Speed 7 mph (ESE)    
Max Wind Speed 14 mph    
Max Gust Speed 20 mph    
Visibility 10 miles    
Events      
T = Trace of Precipitation, MM = Missing Value Source: NWS Daily Summary

Daily Weather History Graph

Daily Weather History Graph

Search for Another Location

Airport or City:

Trip Planner

Search our weather history database for the weather conditions in past years. The results will help you decide how hot, cold, wet, or windy it might be!

Date:

Astronomy

Sep. 15, 2013 Rise Set
Actual Time 7:31 AM CDT 8:06 PM CDT
Civil Twilight 7:00 AM CDT 8:37 PM CDT
Nautical Twilight 6:23 AM CDT 9:14 PM CDT
Astronomical Twilight 5:44 AM CDT 9:53 PM CDT
Moon 5:48 PM CDT (9/15) 2:56 AM CDT (9/15)
Length of Visible Light 13h 37m
Length of Day
12h 34m
Waxing Gibbous, 82% of the Moon is Illuminated
Sep 15
Waxing Gibbous
Sep 19
Full
Sep 26
Last Quarter
Oct 4
New
Oct 11
First Quarter

Hourly Weather History & Observations

Time (CDT) Temp. Windchill Dew Point Humidity Pressure Visibility Wind Dir Wind Speed Gust Speed Precip Events Conditions
12:52 AM 55.0 °F - 46.9 °F 74% 30.15 in 10.0 mi NE 10.4 mph - N/A   Clear
1:52 AM 53.1 °F - 46.0 °F 77% 30.18 in 10.0 mi NE 9.2 mph - N/A   Clear
2:52 AM 51.1 °F - 45.0 °F 80% 30.19 in 10.0 mi ENE 6.9 mph - N/A   Clear
3:52 AM 48.9 °F - 44.1 °F 83% 30.22 in 10.0 mi ENE 5.8 mph - N/A   Clear
4:52 AM 46.9 °F - 43.0 °F 86% 30.24 in 10.0 mi NE 8.1 mph - N/A   Clear
5:52 AM 46.0 °F 43.1 °F 42.1 °F 86% 30.25 in 10.0 mi NE 5.8 mph - N/A   Clear
6:52 AM 45.0 °F 42.6 °F 41.0 °F 86% 30.27 in 10.0 mi NNE 4.6 mph - N/A   Clear
7:52 AM 44.1 °F 42.5 °F 41.0 °F 89% 30.29 in 10.0 mi NNE 3.5 mph - N/A   Clear
8:52 AM 48.0 °F - 43.0 °F 83% 30.31 in 10.0 mi ENE 4.6 mph - N/A   Mostly Cloudy
9:52 AM 50.0 °F - 45.0 °F 83% 30.33 in 10.0 mi SE 5.8 mph - N/A   Overcast
10:35 AM 51.8 °F - 44.6 °F 76% 30.32 in 10.0 mi SE 6.9 mph - N/A   Scattered Clouds
10:52 AM 53.1 °F - 45.0 °F 74% 30.34 in 10.0 mi SE 8.1 mph - N/A   Scattered Clouds
11:52 AM 57.0 °F - 45.0 °F 64% 30.33 in 10.0 mi SSE 6.9 mph - N/A   Clear
12:52 PM 60.1 °F - 45.0 °F 57% 30.32 in 10.0 mi SE 8.1 mph - N/A   Clear
1:52 PM 63.0 °F - 44.1 °F 50% 30.30 in 10.0 mi ESE 9.2 mph - N/A   Clear
2:52 PM 66.0 °F - 41.0 °F 40% 30.28 in 10.0 mi ESE 8.1 mph - N/A   Clear
3:52 PM 66.9 °F - 37.9 °F 34% 30.27 in 10.0 mi ESE 12.7 mph - N/A   Clear
4:52 PM 68.0 °F - 37.9 °F 33% 30.25 in 10.0 mi SE 10.4 mph - N/A   Clear
5:52 PM 68.0 °F - 39.9 °F 36% 30.25 in 10.0 mi SSE 12.7 mph - N/A   Clear
6:52 PM 66.0 °F - 37.9 °F 36% 30.24 in 10.0 mi SE 10.4 mph - N/A   Clear
7:52 PM 63.0 °F - 39.9 °F 43% 30.24 in 10.0 mi SSE 11.5 mph - N/A   Clear
8:52 PM 59.0 °F - 42.1 °F 53% 30.24 in 10.0 mi SE 4.6 mph - N/A   Clear
9:52 PM 55.9 °F - 42.1 °F 60% 30.25 in 10.0 mi SE 6.9 mph - N/A   Clear
10:52 PM 55.0 °F - 43.0 °F 64% 30.23 in 10.0 mi SE 9.2 mph - N/A   Clear
11:52 PM 53.1 °F - 43.0 °F 69% 30.21 in 10.0 mi SSE 4.6 mph - N/A   Clear